Total_Precipitation_Accumulation
0.00 0.00 0.00 0.01 0.02 0.05 0.05 0.06 0.11 0.12 0.15 0.23 0.34 0.54 0.76 0.89 1.07 1.20 1.18 1.31 1.69 2.11 2.42 2.70 2.85 3.07 3.36 3.60 3.79 4.05 4.43 4.54 4.27 4.20 4.11 3.97 3.64 3.46 3.15 2.77 2.45 2.33 2.31 2.44
0.00 0.01 0.01 0.00 0.01 0.04 0.05 0.07 0.12 0.13 0.15 0.24 0.29 0.51 0.72 0.76 0.97 1.10 1.20 1.37 1.53 1.76 2.25 2.52 2.53 2.76 2.97 3.40 3.85 4.16 4.16 4.05 3.77 3.83 4.09 4.29 4.22 3.74 3.18 2.82 2.65 2.30 2.20 2.27
0.01 0.02 0.01 0.01 0.01 0.02 0.07 0.10 0.13 0.15 0.17 0.27 0.36 0.77 0.91 0.83 0.93 1.03 1.11 1.28 1.43 1.61 1.80 2.11 2.14 2.22 2.40 2.84 3.29 3.39 3.28 3.21 3.05 3.09 3.38 3.56 3.76 3.52 3.13 2.80 2.53 2.27 2.14 2.08
0.01 0.01 0.01 0.02 0.02 0.02 0.06 0.05 0.07 0.11 0.20 0.37 0.44 0.88 1.13 1.14 1.20 1.07 1.11 1.16 1.43 1.59 1.64 1.79 1.84 1.88 1.91 1.99 2.23 2.39 2.50 2.57 2.59 2.63 2.80 2.94 3.04 2.95 2.81 2.72 2.45 2.17 1.92 1.82
0.02 0.02 0.02 0.03 0.04 0.03 0.05 0.04 0.06 0.11 0.20 0.38 0.44 0.65 1.07 1.35 1.38 1.14 1.09 1.10 1.26 1.30 1.37 1.48 1.54 1.54 1.57 1.64 1.88 2.09 2.30 2.44 2.54 2.49 2.53 2.68 2.92 2.87 2.66 2.45 2.31 2.12 1.91 1.74
0.03 0.04 0.04 0.04 0.04 0.03 0.05 0.06 0.12 0.19 0.29 0.67 0.58 0.65 1.04 1.27 1.13 1.08 0.99 0.93 1.01 1.02 1.12 1.29 1.40 1.45 1.47 1.52 1.72 1.92 2.05 2.06 2.13 2.19 2.20 2.20 2.31 2.36 2.24 2.08 1.99 1.82 1.66 1.56
0.12 0.10 0.08 0.05 0.05 0.06 0.08 0.14 0.48 0.88 1.07 1.03 0.62 0.72 1.16 1.07 0.89 0.88 0.90 0.92 0.99 0.98 0.94 1.07 1.26 1.28 1.40 1.50 1.59 1.67 1.73 1.71 1.66 1.71 1.66 1.66 1.75 1.91 1.91 1.80 1.76 1.67 1.46 1.32
0.21 0.24 0.16 0.09 0.08 0.09 0.13 0.22 0.62 0.90 0.90 0.89 0.74 1.12 1.34 0.93 0.82 0.78 0.71 0.72 0.73 0.70 0.68 0.77 0.90 1.02 1.12 1.26 1.33 1.38 1.39 1.42 1.46 1.49 1.57 1.56 1.58 1.69 1.78 1.79 1.65 1.56 1.35 1.21
0.14 0.16 0.11 0.08 0.07 0.11 0.21 0.28 0.31 0.51 0.61 0.95 1.13 1.34 1.18 0.90 0.84 0.77 0.77 0.72 0.70 0.66 0.63 0.65 0.72 0.81 0.80 0.89 0.99 1.05 1.09 1.19 1.32 1.34 1.47 1.44 1.43 1.54 1.67 1.71 1.67 1.62 1.54 1.43
0.07 0.09 0.11 0.08 0.10 0.15 0.17 0.21 0.28 0.43 0.64 0.94 1.13 1.42 1.59 1.38 1.17 0.98 0.99 0.88 0.76 0.64 0.56 0.59 0.58 0.58 0.55 0.64 0.83 0.90 1.07 1.14 1.16 1.16 1.12 1.07 1.22 1.39 1.53 1.54 1.49 1.57 1.60 1.62
0.07 0.07 0.10 0.13 0.14 0.16 0.19 0.22 0.29 0.37 0.44 0.71 1.12 1.28 1.07 1.15 1.13 1.11 0.97 0.85 0.76 0.66 0.53 0.52 0.56 0.55 0.52 0.57 0.74 0.80 0.88 1.04 1.09 1.05 0.98 0.96 1.02 1.14 1.23 1.28 1.31 1.43 1.51 1.56
0.08 0.09 0.15 0.20 0.17 0.15 0.18 0.21 0.31 0.48 0.51 0.60 0.90 1.09 0.75 0.83 0.84 0.75 0.70 0.61 0.54 0.54 0.45 0.41 0.48 0.53 0.59 0.73 0.79 0.74 0.74 0.79 0.91 0.95 0.93 0.94 0.96 0.95 0.94 0.98 1.08 1.18 1.26 1.29
0.11 0.15 0.28 0.49 0.49 0.30 0.24 0.20 0.24 0.32 0.41 0.48 0.74 1.00 0.79 0.73 0.77 0.75 0.71 0.66 0.55 0.49 0.46 0.45 0.52 0.53 0.59 0.73 0.84 0.75 0.73 0.76 0.86 0.88 0.91 0.95 0.95 0.89 0.84 0.87 0.95 0.97 0.96 0.96
0.10 0.12 0.23 0.47 0.43 0.33 0.30 0.26 0.28 0.33 0.43 0.45 0.51 0.76 0.85 0.85 0.79 0.73 0.67 0.61 0.57 0.45 0.40 0.42 0.51 0.63 0.66 0.63 0.72 0.69 0.67 0.73 0.82 0.94 1.08 1.06 0.97 0.90 0.87 0.87 0.87 0.87 0.83 0.84
0.10 0.10 0.12 0.17 0.22 0.29 0.32 0.26 0.26 0.27 0.30 0.46 0.43 0.55 0.78 0.83 0.74 0.70 0.64 0.50 0.45 0.48 0.42 0.40 0.46 0.60 0.68 0.68 0.69 0.65 0.67 0.70 0.74 0.87 1.02 1.06 1.07 1.05 1.00 0.92 0.84 0.84 0.83 0.77
0.18 0.17 0.18 0.19 0.25 0.30 0.31 0.27 0.21 0.19 0.19 0.26 0.31 0.48 0.54 0.48 0.57 0.61 0.56 0.51 0.48 0.53 0.48 0.45 0.41 0.43 0.53 0.60 0.63 0.60 0.59 0.60 0.66 0.74 0.84 0.98 1.08 1.07 1.03 0.92 0.88 0.89 0.87 0.89
0.31 0.31 0.28 0.29 0.28 0.34 0.39 0.31 0.23 0.18 0.16 0.23 0.40 0.58 0.52 0.47 0.57 0.55 0.46 0.43 0.52 0.50 0.40 0.34 0.33 0.34 0.38 0.42 0.48 0.60 0.58 0.56 0.63 0.72 0.77 0.90 1.03 1.05 1.01 0.90 0.89 0.90 0.88 0.93
0.29 0.38 0.38 0.39 0.48 0.60 0.40 0.24 0.23 0.25 0.21 0.20 0.30 0.42 0.46 0.41 0.44 0.47 0.42 0.39 0.37 0.34 0.30 0.24 0.23 0.26 0.30 0.32 0.37 0.47 0.57 0.64 0.66 0.72 0.79 0.87 0.94 1.02 1.07 1.05 1.00 1.02 1.03 1.00
0.28 0.41 0.45 0.51 0.64 0.53 0.34 0.30 0.33 0.37 0.37 0.30 0.33 0.38 0.40 0.39 0.40 0.46 0.39 0.37 0.34 0.28 0.26 0.26 0.26 0.26 0.33 0.41 0.45 0.54 0.67 0.74 0.76 0.78 0.86 0.89 0.97 1.13 1.20 1.14 1.11 1.13 1.12 1.02
0.34 0.41 0.55 0.60 0.77 0.71 0.53 0.38 0.35 0.44 0.75 0.53 0.43 0.40 0.41 0.46 0.57 0.64 0.48 0.40 0.35 0.32 0.28 0.25 0.27 0.29 0.35 0.48 0.59 0.69 0.82 0.94 0.93 0.88 0.90 0.97 1.03 1.16 1.27 1.30 1.30 1.27 1.24 1.14
0.71 0.65 0.60 0.69 0.84 0.72 0.51 0.41 0.48 0.82 1.00 0.66 0.58 0.53 0.54 0.59 0.57 0.54 0.49 0.39 0.33 0.31 0.32 0.30 0.33 0.36 0.43 0.49 0.68 0.87 0.93 0.99 1.01 1.01 0.99 1.07 1.15 1.29 1.46 1.58 1.55 1.54 1.47 1.42
0.91 0.95 0.90 0.93 1.08 1.06 0.65 0.54 0.79 0.97 0.78 0.71 0.69 0.66 0.63 0.56 0.49 0.44 0.46 0.39 0.32 0.31 0.33 0.38 0.46 0.51 0.48 0.49 0.66 0.84 0.93 0.95 1.04 1.08 1.15 1.20 1.31 1.33 1.44 1.79 1.82 1.84 1.82 1.69
0.98 1.10 1.20 1.19 1.18 0.96 0.86 0.88 0.90 0.93 0.82 0.77 0.63 0.55 0.52 0.52 0.49 0.49 0.52 0.48 0.37 0.32 0.36 0.41 0.52 0.62 0.68 0.74 0.84 0.98 1.01 1.08 1.15 1.26 1.36 1.40 1.44 1.55 1.64 1.77 1.82 1.85 1.85 1.76
0.92 0.86 1.16 1.31 1.21 1.07 0.94 0.83 0.89 1.05 0.92 0.71 0.57 0.54 0.52 0.51 0.46 0.39 0.39 0.44 0.42 0.38 0.42 0.47 0.52 0.73 0.89 0.99 1.05 1.11 1.16 1.28 1.41 1.53 1.64 1.69 1.68 1.66 1.71 1.84 1.84 1.83 1.81 1.76
0.77 0.81 1.12 1.36 1.31 1.27 1.10 0.82 0.75 0.82 0.75 0.61 0.60 0.59 0.57 0.57 0.50 0.41 0.37 0.38 0.42 0.47 0.52 0.58 0.66 0.78 0.86 1.00 1.15 1.28 1.43 1.58 1.65 1.65 1.67 1.70 1.76 1.85 1.91 1.88 1.87 1.88 1.90 1.83
0.85 0.88 1.15 1.42 1.25 1.20 1.14 0.90 0.75 0.65 0.58 0.57 0.67 0.70 0.59 0.57 0.55 0.49 0.43 0.44 0.47 0.53 0.61 0.69 0.80 0.94 1.03 1.17 1.32 1.44 1.60 1.81 1.96 1.89 1.80 1.82 1.86 1.94 1.96 1.93 1.85 1.82 1.75 1.65